< < Back
Terminal Aerodrome Forecast


Current Version              Previous Versions:   1  2  3  4  5  6  7  8  9  

Terminal Aerodrome Forecast

872
FTUS44 KMOB 291131
TAFMOB
TAF
KMOB 291131Z 2912/3012 33003KT P6SM FEW030 SCT110 BKN250
     FM291400 02005KT P6SM VCTS BKN040CB
      TEMPO 2915/2919 VRB15G25KT 3SM TSRA BKN030CB
     FM300100 18003KT P6SM VCTS BKN050CB BKN150=

Latest METAR

213
SAUS80 KWBC 301200
MTRMOB
METAR KMOB 301156Z 02005KT 7SM FEW050 SCT150 BKN250 24/22 A2998 RMK AO2
SLP149 CB DSNT S-SW 70034 T02390217 10239 20222 53010


USA.gov is the U.S. government's official web portal to all federal, state and local government web resources and services.